Kugluktuk,

10:04 AM MST on December 18, 2017 (GMT -0700)
Kugluktuk

Weather History for CYCO - March, 2013

Change the Weather History Date:

Friday, March 1, 2013

  Actual Average Record
Temperature  
Mean Temperature 4 °F -  
Max Temperature 11 °F -4 °F 15 °F (2015)
Min Temperature -7 °F -17 °F -42 °F (2014)
Degree Days  
Heating Degree Days 62    
Moisture  
Dew Point 1 °F    
Average Humidity 78    
Maximum Humidity 85    
Minimum Humidity 63    
Precipitation  
Precipitation 0.00 in - - ()
Sea Level Pressure  
Sea Level Pressure 29.87 in    
Wind  
Wind Speed 12 mph ()    
Max Wind Speed 17 mph    
Max Gust Speed -    
Visibility 10.8 miles    
Events Snow    
Averages and records for this station are not official NWS values.
T = Trace of Precipitation, MM = Missing Value Source: Averaged Metar Reports

Daily Weather History Graph

Daily Weather History Graph

Search for Another Location

Airport or City:

Trip Planner

Search our weather history database for the weather conditions in past years. The results will help you decide how hot, cold, wet, or windy it might be!

Date:

Astronomy

Mar. 01, 2013 Rise Set
Actual Time 7:57 AM MST 5:49 PM MST
Civil Twilight 7:01 AM MST 6:45 PM MST
Nautical Twilight 5:58 AM MST 7:49 PM MST
Astronomical Twilight 4:51 AM MST 8:57 PM MST
Moon No Moon Rise 7:29 AM MST (3/1)
Length of Visible Light 11h 44m
Length of Day
9h 52m
Waning Gibbous, 83% of the Moon is Illuminated
Mar 1
Waning Gibbous
Mar 4
Last Quarter
Mar 11
New
Mar 19
First Quarter
Mar 27
Full

Hourly Weather History & Observations

Time (MST) Temp. Windchill Dew Point Humidity Pressure Visibility Wind Dir Wind Speed Gust Speed Precip Events Conditions
1:00 AM 5.0 °F -13.6 °F -0.4 °F 78% 29.82 in 15.0 mi SSW 16.1 mph - N/A Snow Low Drifting Snow
2:00 AM 6.8 °F -11.3 °F 1.4 °F 79% 29.81 in 12.0 mi SSW 16.1 mph - N/A Snow Low Drifting Snow
2:50 AM - - - N/A% - 10.0 mi SSW 16.1 mph - N/A   Unknown
3:00 AM 6.8 °F -10.7 °F 1.4 °F 79% 29.81 in 8.0 mi SSW 15.0 mph - N/A Snow Light Snow
4:00 AM 6.8 °F -9.3 °F 1.4 °F 79% 29.79 in 10.0 mi SW 12.7 mph - N/A Snow Light Snow
5:00 AM 8 °F - 4 °F 75% 29.80 in 10 mi SW 16.1 mph - - Snow Light Snow
6:00 AM 8.6 °F -8.3 °F 3.2 °F 79% 29.80 in 10.0 mi SW 15.0 mph - N/A Snow Light Snow
7:00 AM 8.6 °F -7.0 °F 5.0 °F 85% 29.80 in 8.0 mi SSW 12.7 mph - N/A Snow Light Snow
8:00 AM 8.6 °F -7.7 °F 3.2 °F 79% 29.80 in 12.0 mi SW 13.8 mph - N/A Snow Light Snow
9:00 AM 8.6 °F -7.7 °F 3.2 °F 79% 29.80 in 10.0 mi SW 13.8 mph - N/A Snow Light Snow
10:00 AM 8.6 °F -7.0 °F 5.0 °F 85% 29.81 in 6.0 mi SW 12.7 mph - N/A Snow Light Snow
11:00 AM 10 °F - 4 °F 68% 29.81 in 7 mi SW 10.4 mph - - Snow Light Snow
11:00 AM 10.4 °F -3.3 °F 5.0 °F 79% 29.81 in 7.0 mi SW 10.4 mph - N/A Snow Light Snow
12:00 PM 10.4 °F -1.5 °F 5.0 °F 79% 29.81 in 6.0 mi SW 8.1 mph - N/A Snow Light Snow
1:00 PM 10.4 °F -1.5 °F 6.8 °F 85% 29.82 in 8.0 mi SW 8.1 mph - N/A Snow Light Snow
2:00 PM 10.4 °F -1.5 °F 6.8 °F 85% 29.84 in 5.0 mi WSW 8.1 mph - N/A Snow Light Snow
3:00 PM 10.4 °F -4.8 °F 6.8 °F 85% 29.85 in 8.0 mi West 12.7 mph - N/A Snow Light Snow
3:39 PM - - - N/A% - 12.0 mi West 17.3 mph - N/A   Unknown
4:00 PM 6.8 °F -11.8 °F 1.4 °F 79% 29.88 in 15.0 mi West 17.3 mph - N/A Snow Low Drifting Snow
5:00 PM 3 °F - -3 °F 63% 29.91 in 15 mi West 10.4 mph - - Snow Low Drifting Snow
5:00 PM 3.2 °F -12.2 °F -4.0 °F 72% 29.91 in 15.0 mi West 10.4 mph - N/A Snow Low Drifting Snow
5:36 PM - - - N/A% - 12.0 mi WSW 11.5 mph - N/A   Unknown
6:00 PM 3.2 °F -9.1 °F -2.2 °F 78% 29.94 in 12.0 mi West 6.9 mph - N/A Snow Light Snow
7:00 PM 3.2 °F -11.3 °F -2.2 °F 78% 29.96 in 12.0 mi NW 9.2 mph - N/A Snow Light Snow
8:00 PM 1.4 °F -8.3 °F -5.8 °F 72% 29.99 in 12.0 mi WNW 4.6 mph - N/A Snow Light Snow
9:00 PM -0.4 °F -12.0 °F -5.8 °F 78% 30.00 in 12.0 mi West 5.8 mph - N/A Snow Light Snow
9:43 PM - - - N/A% - 15.0 mi West 9.2 mph - N/A   Mostly Cloudy
10:00 PM -4.0 °F -21.2 °F -9.4 °F 78% 30.04 in 15.0 mi West 10.4 mph - N/A   Scattered Clouds
11:00 PM -7.6 °F -27.5 °F -13.0 °F 77% 30.06 in 15.0 mi West 12.7 mph - N/A   Scattered Clouds